| time (UTC) | temp F | wind direction | speed MPH | gust MPH | rain 1hr in | rain 24hr in | rain mn in | humidity % | barometer mb |
| 20260506025334 | 53 | 81 | 12.0 | 20.0 | 0.00 | 0.00 | 0.00 | 40 | 1016.0 |
| 20260506024834 | 53 | 83 | 12.0 | 20.0 | 0.00 | 0.00 | 0.00 | 38 | 1016.0 |
| 20260506024334 | 53 | 74 | 11.0 | 15.0 | 0.00 | 0.00 | 0.00 | 38 | 1016.0 |
| 20260506023834 | 53 | 69 | 9.0 | 14.0 | 0.00 | 0.00 | 0.00 | 37 | 1016.0 |
| 20260506023334 | 53 | 57 | 9.0 | 14.0 | 0.00 | 0.00 | 0.00 | 41 | 1016.0 |
| 20260506022835 | 53 | 97 | 10.0 | 18.0 | 0.00 | 0.00 | 0.00 | 37 | 1016.0 |
| 20260506022333 | 53 | 92 | 10.0 | 18.0 | 0.00 | 0.00 | 0.00 | 37 | 1016.0 |
| 20260506021835 | 53 | 73 | 10.0 | 18.0 | 0.00 | 0.00 | 0.00 | 38 | 1015.7 |
| 20260506021334 | 53 | 28 | 10.0 | 20.0 | 0.00 | 0.00 | 0.00 | 38 | 1015.9 |
| 20260506020834 | 53 | 96 | 11.0 | 20.0 | 0.00 | 0.00 | 0.00 | 38 | 1015.9 |
| 20260506020334 | 53 | 14 | 11.0 | 17.0 | 0.00 | 0.00 | 0.00 | 37 | 1015.7 |
| 20260506015834 | 54 | 69 | 12.0 | 20.0 | 0.00 | 0.00 | 0.00 | 38 | 1015.7 |
| 20260506015337 | 54 | 91 | 11.0 | 20.0 | 0.00 | 0.00 | 0.00 | 38 | 1015.6 |
| 20260506014836 | 54 | 74 | 9.0 | 17.0 | 0.00 | 0.00 | 0.00 | 38 | 1015.6 |
| 20260506014336 | 54 | 59 | 10.0 | 16.0 | 0.00 | 0.00 | 0.00 | 39 | 1015.6 |
| 20260506013835 | 54 | 76 | 10.0 | 16.0 | 0.00 | 0.00 | 0.00 | 38 | 1015.5 |
| 20260506013335 | 54 | 84 | 11.0 | 19.0 | 0.00 | 0.00 | 0.00 | 38 | 1015.5 |
| 20260506012834 | 54 | 336 | 12.0 | 20.0 | 0.00 | 0.00 | 0.00 | 37 | 1015.6 |
| 20260506011833 | 54 | 101 | 12.0 | 20.0 | 0.00 | 0.00 | 0.00 | 37 | 1015.6 |
| 20260506011334 | 54 | 86 | 13.0 | 21.0 | 0.00 | 0.00 | 0.00 | 38 | 1015.6 |
| 20260506010834 | 54 | 88 | 14.0 | 21.0 | 0.00 | 0.00 | 0.00 | 38 | 1015.6 |
| 20260506010334 | 54 | 67 | 15.0 | 23.0 | 0.00 | 0.00 | 0.00 | 36 | 1015.6 |
| 20260506005834 | 54 | 17 | 16.0 | 24.0 | 0.00 | 0.00 | 0.00 | 36 | 1015.6 |
| 20260506005335 | 54 | 276 | 17.0 | 26.0 | 0.00 | 0.00 | 0.00 | 37 | 1015.9 |
| 20260506004834 | 54 | 336 | 17.0 | 26.0 | 0.00 | 0.00 | 0.00 | 36 | 1015.7 |
| 20260506004335 | 54 | 79 | 16.0 | 23.0 | 0.00 | 0.00 | 0.00 | 35 | 1015.6 |
| 20260506003833 | 54 | 80 | 15.0 | 24.0 | 0.00 | 0.00 | 0.00 | 36 | 1015.7 |
| 20260506002335 | 54 | 86 | 14.0 | 24.0 | 0.00 | 0.00 | 0.00 | 35 | 1015.9 |
| 20260506001833 | 54 | 33 | 15.0 | 23.0 | 0.00 | 0.00 | 0.00 | 39 | 1015.7 |
| 20260506001334 | 54 | 91 | 16.0 | 24.0 | 0.00 | 0.00 | 0.00 | 34 | 1015.9 |
| 20260506000833 | 54 | 79 | 16.0 | 24.0 | 0.00 | 0.00 | 0.00 | 35 | 1015.4 |
| 20260506000335 | 54 | 94 | 15.0 | 22.0 | 0.00 | 0.00 | 0.00 | 38 | 1015.7 |
| 20260505235336 | 55 | 71 | 14.0 | 23.0 | 0.00 | 0.00 | 0.00 | 36 | 1015.7 |
| 20260505234838 | 54 | 74 | 15.0 | 24.0 | 0.00 | 0.00 | 0.00 | 36 | 1015.6 |
| 20260505234332 | 54 | 66 | 17.0 | 24.0 | 0.00 | 0.00 | 0.00 | 38 | 1015.5 |
| 20260505233831 | 54 | 81 | 19.0 | 33.0 | 0.00 | 0.00 | 0.00 | 36 | 1016.0 |
| 20260505233332 | 54 | 49 | 19.0 | 33.0 | 0.00 | 0.00 | 0.00 | 36 | 1015.9 |
| 20260505232830 | 55 | 28 | 16.0 | 28.0 | 0.00 | 0.00 | 0.00 | 35 | 1016.0 |
| 20260505232330 | 55 | 77 | 16.0 | 28.0 | 0.00 | 0.00 | 0.00 | 37 | 1015.7 |
| 20260505231331 | 54 | 74 | 22.0 | 30.0 | 0.00 | 0.00 | 0.00 | 36 | 1015.6 |
| 20260505230831 | 54 | 68 | 23.0 | 29.0 | 0.00 | 0.00 | 0.00 | 35 | 1016.1 |
| 20260505230331 | 54 | 69 | 21.0 | 29.0 | 0.00 | 0.00 | 0.00 | 36 | 1015.9 |
| 20260505225832 | 54 | 96 | 17.0 | 29.0 | 0.00 | 0.00 | 0.00 | 36 | 1016.6 |
| 20260505225331 | 55 | 65 | 14.0 | 24.0 | 0.00 | 0.00 | 0.00 | 35 | 1015.9 |
| 20260505224832 | 55 | 78 | 13.0 | 24.0 | 0.00 | 0.00 | 0.00 | 35 | 1015.9 |
| 20260505224331 | 55 | 90 | 13.0 | 23.0 | 0.00 | 0.00 | 0.00 | 36 | 1015.9 |
| 20260505223330 | 55 | 47 | 17.0 | 28.0 | 0.00 | 0.00 | 0.00 | 34 | 1015.9 |
| 20260505222330 | 56 | 126 | 9.0 | 23.0 | 0.00 | 0.00 | 0.00 | 32 | 1016.3 |
| 20260505221330 | 59 | 168 | 4.0 | 12.0 | 0.00 | 0.00 | 0.00 | 31 | 1015.6 |
| 20260505220329 | 59 | 309 | 3.0 | 11.0 | 0.00 | 0.00 | 0.00 | 30 | 1015.9 |
| 20260505215830 | 60 | 11 | 3.0 | 12.0 | 0.00 | 0.00 | 0.00 | 31 | 1015.7 |
| 20260505215330 | 59 | 117 | 5.0 | 13.0 | 0.00 | 0.00 | 0.00 | 31 | 1016.1 |
| 20260505214830 | 59 | 84 | 5.0 | 14.0 | 0.00 | 0.00 | 0.00 | 30 | 1015.9 |
| 20260505214331 | 59 | 34 | 8.0 | 18.0 | 0.00 | 0.00 | 0.00 | 30 | 1016.0 |
| 20260505213830 | 58 | 304 | 8.0 | 18.0 | 0.00 | 0.00 | 0.00 | 32 | 1016.2 |
| 20260505213330 | 59 | 76 | 6.0 | 13.0 | 0.00 | 0.00 | 0.00 | 30 | 1016.0 |
| 20260505212831 | 59 | 84 | 4.0 | 13.0 | 0.00 | 0.00 | 0.00 | 27 | 1015.9 |
| 20260505212330 | 59 | 59 | 4.0 | 10.0 | 0.00 | 0.00 | 0.00 | 30 | 1016.0 |
| 20260505211830 | 59 | 347 | 8.0 | 14.0 | 0.00 | 0.00 | 0.00 | 29 | 1016.0 |
| 20260505211329 | 58 | 138 | 10.0 | 18.0 | 0.00 | 0.00 | 0.00 | 34 | 1016.1 |
| 20260505210830 | 58 | 59 | 10.0 | 18.0 | 0.00 | 0.00 | 0.00 | 32 | 1016.1 |
| 20260505210331 | 58 | 66 | 10.0 | 17.0 | 0.00 | 0.00 | 0.00 | 35 | 1016.3 |
| 20260505205329 | 57 | 76 | 6.0 | 17.0 | 0.00 | 0.00 | 0.00 | 31 | 1016.4 |
| 20260505204829 | 57 | 55 | 5.0 | 13.0 | 0.00 | 0.00 | 0.00 | 36 | 1016.2 |
| 20260505204329 | 58 | 35 | 4.0 | 13.0 | 0.00 | 0.00 | 0.00 | 31 | 1016.3 |
| 20260505203829 | 60 | 19 | 3.0 | 10.0 | 0.00 | 0.00 | 0.00 | 28 | 1016.2 |
| 20260505203329 | 59 | 58 | 5.0 | 12.0 | 0.00 | 0.00 | 0.00 | 35 | 1016.2 |
| 20260505202829 | 58 | 257 | 5.0 | 12.0 | 0.00 | 0.00 | 0.00 | 31 | 1016.2 |
| 20260505201830 | 58 | 68 | 5.0 | 12.0 | 0.00 | 0.00 | 0.00 | 30 | 1016.3 |
| 20260505201330 | 59 | 132 | 4.0 | 10.0 | 0.00 | 0.00 | 0.00 | 30 | 1016.2 |
| 20260505200829 | 58 | 48 | 4.0 | 9.0 | 0.00 | 0.00 | 0.00 | 37 | 1016.2 |
| 20260505200329 | 58 | 74 | 4.0 | 9.0 | 0.00 | 0.00 | 0.00 | 34 | 1016.3 |
| 20260505195830 | 59 | 82 | 5.0 | 12.0 | 0.00 | 0.00 | 0.00 | 31 | 1016.3 |
| 20260505195335 | 58 | 340 | 6.0 | 13.0 | 0.00 | 0.00 | 0.00 | 33 | 1016.4 |
| 20260505194832 | 59 | 68 | 4.0 | 13.0 | 0.00 | 0.00 | 0.00 | 32 | 1016.3 |
| 20260505194333 | 60 | 45 | 3.0 | 8.0 | 0.00 | 0.00 | 0.00 | 36 | 1016.2 |
| 20260505193832 | 60 | 321 | 3.0 | 9.0 | 0.00 | 0.00 | 0.00 | 30 | 1016.2 |
| 20260505193323 | 60 | 47 | 2.0 | 11.0 | 0.00 | 0.00 | 0.00 | 34 | 1016.3 |
| 20260505192817 | 59 | 17 | 3.0 | 11.0 | 0.00 | 0.00 | 0.00 | 34 | 1016.3 |
| 20260505192316 | 58 | 123 | 2.0 | 8.0 | 0.00 | 0.00 | 0.00 | 35 | 1016.4 |
| 20260505191816 | 58 | 71 | 2.0 | 8.0 | 0.00 | 0.00 | 0.00 | 35 | 1016.4 |
| 20260505191314 | 59 | 103 | 2.0 | 8.0 | 0.00 | 0.00 | 0.00 | 35 | 1016.3 |
| 20260505190815 | 60 | 71 | 2.0 | 8.0 | 0.00 | 0.00 | 0.00 | 37 | 1016.3 |
| 20260505185813 | 58 | 336 | 3.0 | 7.0 | 0.00 | 0.00 | 0.00 | 37 | 1016.3 |
| 20260505185311 | 57 | 68 | 4.0 | 8.0 | 0.00 | 0.00 | 0.00 | 41 | 1016.5 |
| 20260505184811 | 57 | 40 | 5.0 | 10.0 | 0.00 | 0.00 | 0.00 | 39 | 1016.4 |
| 20260505184311 | 57 | 52 | 6.0 | 12.0 | 0.00 | 0.00 | 0.00 | 38 | 1016.5 |
| 20260505183310 | 56 | 67 | 3.0 | 9.0 | 0.00 | 0.00 | 0.00 | 41 | 1016.4 |
| 20260505182808 | 56 | 149 | 3.0 | 8.0 | 0.00 | 0.00 | 0.00 | 39 | 1016.4 |
| 20260505181308 | 57 | 90 | 2.0 | 17.0 | 0.00 | 0.00 | 0.00 | 39 | 1016.4 |
| 20260505180805 | 57 | 96 | 1.0 | 4.0 | 0.00 | 0.00 | 0.00 | 37 | 1016.3 |
| 20260505180302 | 56 | 107 | 3.0 | 6.0 | 0.00 | 0.00 | 0.00 | 38 | 1016.3 |
| 20260505175801 | 56 | 71 | 3.0 | 6.0 | 0.00 | 0.00 | 0.00 | 36 | 1016.4 |
| 20260505174801 | 57 | 68 | 1.0 | 4.0 | 0.00 | 0.00 | 0.00 | 36 | 1016.4 |
| 20260505174302 | 55 | 59 | 2.0 | 4.0 | 0.00 | 0.00 | 0.00 | 39 | 1016.4 |
| 20260505173802 | 56 | 329 | 2.0 | 4.0 | 0.00 | 0.00 | 0.00 | 36 | 1016.5 |
| 20260505173302 | 57 | 61 | 1.0 | 4.0 | 0.00 | 0.00 | 0.00 | 41 | 1016.4 |
| 20260505172801 | 58 | 85 | 1.0 | 6.0 | 0.00 | 0.00 | 0.00 | 37 | 1016.3 |
| 20260505172305 | 56 | 211 | 1.0 | 6.0 | 0.00 | 0.00 | 0.00 | 36 | 1016.4 |
| 20260505171801 | 55 | 187 | 0.0 | 3.0 | 0.00 | 0.00 | 0.00 | 41 | 1016.5 |
| 20260505171303 | 55 | 200 | 1.0 | 6.0 | 0.00 | 0.00 | 0.00 | 40 | 1016.5 |
| 20260505170800 | 55 | 291 | 1.0 | 6.0 | 0.00 | 0.00 | 0.00 | 40 | 1016.4 |
| 20260505170301 | 56 | 350 | 1.0 | 4.0 | 0.00 | 0.00 | 0.00 | 40 | 1016.5 |
| 20260505165802 | 56 | 26 | 2.0 | 5.0 | 0.00 | 0.00 | 0.00 | 39 | 1016.4 |
| 20260505164802 | 56 | 42 | 2.0 | 6.0 | 0.00 | 0.00 | 0.00 | 41 | 1016.5 |
| 20260505164301 | 57 | 37 | 1.0 | 5.0 | 0.00 | 0.00 | 0.00 | 38 | 1016.4 |
| 20260505163803 | 57 | 338 | 1.0 | 4.0 | 0.00 | 0.00 | 0.00 | 36 | 1016.5 |
| 20260505163302 | 57 | 331 | 0.0 | 2.0 | 0.00 | 0.00 | 0.00 | 39 | 1016.3 |
| 20260505162301 | 56 | 29 | 1.0 | 4.0 | 0.00 | 0.00 | 0.00 | 37 | 1016.4 |
| 20260505161801 | 56 | 109 | 1.0 | 3.0 | 0.00 | 0.00 | 0.00 | 36 | 1016.3 |
| 20260505161302 | 56 | 54 | 1.0 | 3.0 | 0.00 | 0.00 | 0.00 | 39 | 1016.3 |
| 20260505160301 | 56 | 71 | 1.0 | 4.0 | 0.00 | 0.00 | 0.00 | 38 | 1016.3 |
| 20260505153301 | 53 | 277 | 0.0 | 0.0 | 0.00 | 0.00 | 0.00 | 47 | 1016.4 |
| 20260505152802 | 52 | 278 | 0.0 | 1.0 | 0.00 | 0.00 | 0.00 | 47 | 1016.4 |
| 20260505152304 | 52 | 258 | 0.0 | 2.0 | 0.00 | 0.00 | 0.00 | 48 | 1016.4 |
| 20260505151302 | 51 | 312 | 0.0 | 1.0 | 0.00 | 0.00 | 0.00 | 53 | 1016.5 |
| 20260505150801 | 50 | 304 | 0.0 | 3.0 | 0.00 | 0.00 | 0.00 | 52 | 1016.5 |
| 20260505150302 | 49 | 309 | 0.0 | 3.0 | 0.00 | 0.00 | 0.00 | 50 | 1016.4 |
| 20260505140304 | 44 | 222 | 0.0 | 1.0 | 0.00 | 0.00 | 0.00 | 63 | 1016.0 |
| 20260505130303 | 44 | 40 | 0.0 | 1.0 | 0.00 | 0.00 | 0.00 | 68 | 1015.3 |
| 20260505124801 | 43 | 265 | 1.0 | 5.0 | 0.00 | 0.00 | 0.00 | 61 | 1015.2 |
| 20260505124301 | 43 | 98 | 1.0 | 3.0 | 0.00 | 0.00 | 0.00 | 66 | 1015.2 |
| 20260505123301 | 44 | 314 | 2.0 | 6.0 | 0.00 | 0.00 | 0.00 | 58 | 1015.0 |
| 20260505122803 | 44 | 217 | 1.0 | 2.0 | 0.00 | 0.00 | 0.00 | 64 | 1014.9 |
| 20260505122305 | 44 | 244 | 1.0 | 3.0 | 0.00 | 0.00 | 0.00 | 63 | 1014.9 |
| 20260505121802 | 44 | 237 | 1.0 | 3.0 | 0.00 | 0.00 | 0.00 | 66 | 1014.8 |
| 20260505120753 | 43 | 300 | 1.0 | 4.0 | 0.00 | 0.00 | 0.00 | 56 | 1014.6 |
| 20260505120255 | 43 | 280 | 1.0 | 4.0 | 0.00 | 0.00 | 0.00 | 70 | 1014.6 |
| 20260505115251 | 43 | 256 | 1.0 | 3.0 | 0.00 | 0.00 | 0.00 | 67 | 1014.6 |
| 20260505114252 | 42 | 273 | 1.0 | 3.0 | 0.00 | 0.00 | 0.00 | 71 | 1014.6 |
| 20260505113752 | 42 | 242 | 1.0 | 3.0 | 0.00 | 0.00 | 0.00 | 69 | 1014.6 |
| 20260505113251 | 42 | 238 | 0.0 | 2.0 | 0.00 | 0.00 | 0.00 | 67 | 1014.6 |
| 20260505112749 | 42 | 246 | 1.0 | 2.0 | 0.00 | 0.00 | 0.00 | 74 | 1014.8 |
| 20260505111749 | 42 | 240 | 1.0 | 2.0 | 0.00 | 0.00 | 0.00 | 72 | 1014.5 |
| 20260505110745 | 42 | 271 | 0.0 | 2.0 | 0.00 | 0.00 | 0.00 | 71 | 1014.6 |
| 20260505110246 | 42 | 243 | 0.0 | 2.0 | 0.00 | 0.00 | 0.00 | 69 | 1014.6 |
| 20260505101736 | 44 | 295 | 0.0 | 1.0 | 0.00 | 0.00 | 0.00 | 69 | 1014.6 |
| 20260505101236 | 44 | 296 | 0.0 | 0.0 | 0.00 | 0.00 | 0.00 | 63 | 1014.6 |
| 20260505100736 | 44 | 296 | 0.0 | 0.0 | 0.00 | 0.00 | 0.00 | 65 | 1014.8 |
| 20260505100235 | 44 | 296 | 0.0 | 1.0 | 0.00 | 0.00 | 0.00 | 67 | 1014.8 |
| 20260505095737 | 45 | 296 | 0.0 | 1.0 | 0.00 | 0.00 | 0.00 | 66 | 1014.6 |
| 20260505095235 | 45 | 0 | 0.0 | 1.0 | 0.00 | 0.00 | 0.00 | 66 | 1014.6 |
| 20260505094736 | 45 | 285 | 0.0 | 1.0 | 0.00 | 0.00 | 0.00 | 66 | 1014.6 |
| 20260505094235 | 45 | 284 | 0.0 | 1.0 | 0.00 | 0.00 | 0.00 | 62 | 1014.6 |
| 20260505093736 | 45 | 284 | 0.0 | 1.0 | 0.00 | 0.00 | 0.00 | 70 | 1014.6 |
| 20260505093233 | 46 | 283 | 1.0 | 2.0 | 0.00 | 0.00 | 0.00 | 69 | 1014.6 |
| 20260505092734 | 46 | 57 | 1.0 | 3.0 | 0.00 | 0.00 | 0.00 | 66 | 1014.6 |
| 20260505092233 | 46 | 225 | 1.0 | 3.0 | 0.00 | 0.00 | 0.00 | 58 | 1014.8 |
| 20260505091734 | 46 | 292 | 0.0 | 1.0 | 0.00 | 0.00 | 0.00 | 62 | 1014.6 |
| 20260505091229 | 47 | 271 | 1.0 | 2.0 | 0.00 | 0.00 | 0.00 | 59 | 1014.6 |
| 20260505090730 | 47 | 248 | 1.0 | 2.0 | 0.00 | 0.00 | 0.00 | 55 | 1014.6 |
| 20260505090224 | 49 | 284 | 1.0 | 3.0 | 0.00 | 0.00 | 0.00 | 55 | 1014.6 |
| 20260505085718 | 50 | 304 | 0.0 | 3.0 | 0.00 | 0.00 | 0.00 | 45 | 1014.6 |
| 20260505085210 | 49 | 296 | 0.0 | 3.0 | 0.00 | 0.00 | 0.00 | 42 | 1014.9 |
| 20260505084707 | 49 | 248 | 1.0 | 2.0 | 0.00 | 0.00 | 0.00 | 45 | 1014.8 |
| 20260505084207 | 49 | 231 | 1.0 | 3.0 | 0.00 | 0.00 | 0.00 | 50 | 1014.8 |
| 20260505083706 | 49 | 144 | 1.0 | 3.0 | 0.00 | 0.00 | 0.00 | 44 | 1014.8 |
| 20260505083202 | 50 | 213 | 1.0 | 12.0 | 0.00 | 0.00 | 0.00 | 46 | 1014.9 |
| 20260505082704 | 51 | 253 | 3.0 | 12.0 | 0.00 | 0.00 | 0.00 | 49 | 1014.8 |
| 20260505082202 | 51 | 50 | 6.0 | 13.0 | 0.00 | 0.00 | 0.00 | 42 | 1014.8 |
| 20260505081706 | 50 | 67 | 4.0 | 13.0 | 0.00 | 0.00 | 0.00 | 45 | 1014.8 |
| 20260505080707 | 46 | 284 | 1.0 | 3.0 | 0.00 | 0.00 | 0.00 | 64 | 1014.8 |
| 20260505080204 | 46 | 241 | 0.0 | 3.0 | 0.00 | 0.00 | 0.00 | 62 | 1014.8 |
| 20260505075706 | 46 | 275 | 0.0 | 2.0 | 0.00 | 0.00 | 0.00 | 60 | 1015.0 |
| 20260505075203 | 46 | 261 | 0.0 | 2.0 | 0.00 | 0.00 | 0.00 | 62 | 1014.8 |
| 20260505074704 | 46 | 276 | 0.0 | 2.0 | 0.00 | 0.00 | 0.00 | 63 | 1015.0 |
| 20260505074201 | 46 | 276 | 1.0 | 2.0 | 0.00 | 0.00 | 0.00 | 64 | 1015.0 |
| 20260505073703 | 46 | 232 | 1.0 | 2.0 | 0.00 | 0.00 | 0.00 | 65 | 1014.9 |
| 20260505073201 | 46 | 275 | 0.0 | 1.0 | 0.00 | 0.00 | 0.00 | 63 | 1014.6 |
| 20260505072703 | 47 | 268 | 0.0 | 2.0 | 0.00 | 0.00 | 0.00 | 61 | 1014.8 |
| 20260505072201 | 47 | 279 | 1.0 | 2.0 | 0.00 | 0.00 | 0.00 | 62 | 1014.6 |
| 20260505071703 | 48 | 261 | 1.0 | 3.0 | 0.00 | 0.00 | 0.00 | 56 | 1014.8 |
| 20260505071201 | 49 | 281 | 2.0 | 9.0 | 0.00 | 0.00 | 0.00 | 56 | 1014.8 |
| 20260505070706 | 48 | 290 | 2.0 | 9.0 | 0.00 | 0.00 | 0.00 | 57 | 1014.8 |
| 20260505070201 | 48 | 283 | 2.0 | 3.0 | 0.00 | 0.00 | 0.00 | 60 | 1014.8 |
| 20260505065702 | 48 | 238 | 1.0 | 3.0 | 0.00 | 0.00 | 0.00 | 59 | 1014.8 |
| 20260505065201 | 49 | 327 | 1.0 | 3.0 | 0.00 | 0.00 | 0.00 | 57 | 1014.5 |
| 20260505064702 | 49 | 269 | 1.0 | 3.0 | 0.00 | 0.00 | 0.00 | 54 | 1014.8 |
| 20260505064202 | 50 | 204 | 1.0 | 3.0 | 0.00 | 0.00 | 0.00 | 54 | 1014.9 |
| 20260505063201 | 50 | 63 | 1.0 | 5.0 | 0.00 | 0.00 | 0.00 | 55 | 1014.6 |
| 20260505062707 | 50 | 160 | 1.0 | 4.0 | 0.00 | 0.00 | 0.00 | 54 | 1014.6 |
| 20260505062201 | 51 | 219 | 1.0 | 4.0 | 0.00 | 0.00 | 0.00 | 52 | 1014.5 |
| 20260505061707 | 51 | 242 | 2.0 | 4.0 | 0.00 | 0.00 | 0.00 | 48 | 1014.5 |
| 20260505061201 | 52 | 324 | 2.0 | 5.0 | 0.00 | 0.00 | 0.00 | 48 | 1014.5 |
| 20260505055705 | 54 | 61 | 4.0 | 10.0 | 0.00 | 0.00 | 0.00 | 38 | 1014.5 |
| 20260505054705 | 53 | 349 | 3.0 | 11.0 | 0.00 | 0.00 | 0.00 | 44 | 1014.6 |
| 20260505054202 | 54 | 46 | 6.0 | 11.0 | 0.00 | 0.00 | 0.00 | 39 | 1014.5 |
| 20260505053659 | 54 | 39 | 6.0 | 11.0 | 0.00 | 0.00 | 0.00 | 39 | 1014.4 |
| 20260505053152 | 54 | 86 | 5.0 | 11.0 | 0.00 | 0.00 | 0.00 | 37 | 1014.2 |
| 20260505052653 | 54 | 173 | 3.0 | 11.0 | 0.00 | 0.00 | 0.00 | 45 | 1014.4 |
| 20260505052154 | 54 | 88 | 3.0 | 11.0 | 0.00 | 0.00 | 0.00 | 41 | 1014.5 |
| 20260505051148 | 54 | 67 | 5.0 | 12.0 | 0.00 | 0.00 | 0.00 | 42 | 1014.3 |
| 20260505050148 | 54 | 227 | 8.0 | 18.0 | 0.00 | 0.00 | 0.00 | 39 | 1014.3 |
| 20260505041646 | 55 | 91 | 16.0 | 22.0 | 0.00 | 0.00 | 0.00 | 45 | 1014.1 |
| 20260505041145 | 55 | 119 | 14.0 | 20.0 | 0.00 | 0.00 | 0.00 | 44 | 1013.9 |
| 20260505040646 | 54 | 75 | 16.0 | 21.0 | 0.00 | 0.00 | 0.00 | 45 | 1013.9 |
| 20260505040146 | 54 | 90 | 17.0 | 22.0 | 0.00 | 0.00 | 0.00 | 45 | 1013.9 |
| 20260505035648 | 54 | 78 | 17.0 | 24.0 | 0.00 | 0.00 | 0.00 | 45 | 1013.9 |
| 20260505035146 | 55 | 44 | 18.0 | 25.0 | 0.00 | 0.00 | 0.00 | 45 | 1013.8 |
| 20260505034644 | 55 | 74 | 17.0 | 25.0 | 0.00 | 0.00 | 0.00 | 45 | 1013.9 |
| 20260505034144 | 55 | 106 | 15.0 | 21.0 | 0.00 | 0.00 | 0.00 | 45 | 1013.7 |
| 20260505033644 | 55 | 113 | 14.0 | 21.0 | 0.00 | 0.00 | 0.00 | 44 | 1013.6 |
| 20260505033144 | 55 | 37 | 13.0 | 21.0 | 0.00 | 0.00 | 0.00 | 44 | 1013.6 |
| 20260505032643 | 55 | 95 | 13.0 | 20.0 | 0.00 | 0.00 | 0.00 | 46 | 1013.6 |
| 20260505032144 | 55 | 70 | 14.0 | 20.0 | 0.00 | 0.00 | 0.00 | 43 | 1013.6 |
| 20260505031644 | 55 | 74 | 15.0 | 21.0 | 0.00 | 0.00 | 0.00 | 44 | 1013.6 |
| 20260505031144 | 55 | 67 | 15.0 | 21.0 | 0.00 | 0.00 | 0.00 | 45 | 1013.4 |
| 20260505030646 | 55 | 66 | 13.0 | 21.0 | 0.00 | 0.00 | 0.00 | 46 | 1013.6 |
| 20260505025644 | 56 | 80 | 12.0 | 19.0 | 0.00 | 0.00 | 0.00 | 45 | 1013.3 |